COSMOS 1171

Satellite information

Favourite Embed

Satellite Type and Status

PAYLOADIN ORBIT

Key statistics

Satellite COSMOS 1171 at a glance.

Uptime

16595

Days in orbit

Revolutions

≈ 13.7

Per day

Orbit

LEO

Low Earth Orbit

Inclination

65.8

Latest

Satellite identification and parameters

Extended collection of information and parameters for COSMOS 1171.

Object identification

Identified? True

Debris? False

Object name: COSMOS 1171

International designator: 1980-026A

Object number (NORAD): 11750

Object ID (CCSDS): 11750

Country: COMMONWEALTH OF INDEPENDENT STATES (CIS)

Current information (Y/N): Y

RCS size: LARGE

Orbital parameters

Period: 104.821 minutes

Inclination: 65.841 deg

SMA: 7364.222 km

Apoapsis: 995.38 km

Periapsis: 976.794 km

RAAN: 85.9634 deg

Eccentricy: 0.00126188

Argument of periapsis: 54.7891 deg

Mean anomaly: 5.0849 deg

Mean motion: 13.73765064 rev/day

Mean motion (dot): -0.00000066 rev/day2

B* drag term: 0.000014745272 1/REarth

Two-line elements (TLE)

Creation date: Sept. 8, 2025, 6:18 p.m.

Reference frame: TEME

Reference center: EARTH

Epoch: Sept. 8, 2025, 2:47 p.m. UTC

TLE line 0: 0 COSMOS 1171

TLE line 1: 1 11750U 80026A 25251.61627049 -.00000066 00000-0 14745-4 0 9998

TLE line 2: 2 11750 65.8410 85.9634 0012619 54.7891 5.0849 13.73765064278834

Live tracking on map

Real-time ground track for satellite COSMOS 1171.

In-orbit conjunctions

There are no conjunctions computed for COSMOS 1171, at the moment. Check back to stay up to date, as we update our databases every day.

Go to all conjunctions

Associated space launch

ASAT target satellite

COSMOS 1171 was lifted into orbit during the mission ‘Kosmos-3M | DS-P1-M 14’, on board a Kosmos-3M space rocket.

The launch took place on April 3, 1980, 7:40 a.m. from 132/2.

For more information about the launch, click the button.

Launch to space Kosmos-3M | DS-P1-M 14
Kosmos-3M | DS-P1-M 14

Agency: N/A

Status: Launch Successful

Launch date: April 3, 1980, 7:40 a.m. UTC

Rocket: Kosmos-3M

Launch pad: 132/2

Location: Plesetsk Cosmodrome, Russian Federation

...

Latest news about this satellite

There are no fresh news available about this satellite. Check back as we update our databases every day.


Newsletter sign-up

Weekly statistics, charts and insights to help you stay on top of the space industry.